Airfield :
LOGIN :

Register | Disclaimer

   EN    FR    IT 

 










Legend :    VFR   Marginal VFR   IFR   Intensive IFR   Very Intensive IFR
Visi :
Ceiling :
>= 8 km
>= 3000ft
5 to 8 km
1000 to 3000 ft
1500m to 5 km
500 to 1000 ft
800 to 1500m
200 to 500 ft
< 800m
< 200 ft
Symbols :   Thunderstorms  Fog  Heavy snow  Heavy precipitations  Wind > 20 kt
SIGMETs :     Misc.  Thunderstorms  Icing  Turbulence  Mountain Waves  Volcanic Ashes






- Airport Elevation : 12 ft
- IATA code : CQF


LFAC - Calais

CURRENT METAR :
  • 131630Z AUTO 02007KT 350V050 CAVOK 21/13 Q1025

EXPIRED METARs :
  • 131600Z AUTO 01007KT 350V050 CAVOK 21/12 Q1026
  • 131530Z AUTO 01006KT 330V040 CAVOK 22/13 Q1026
  • 131500Z AUTO 01005KT CAVOK 22/13 Q1026
  • 131430Z AUTO 36006KT 320V050 CAVOK 22/12 Q1026
  • 131400Z AUTO 36006KT 320V040 CAVOK 22/12 Q1027

TAF N/A
ATIS : +33 3 21 00 11 14



MET'MAP, your aeronautical weather chart ! - Copyright ORBIFLY December 2007 - Disclaimer

ORBIFLY MET'MAP TEAM :

Programming & Development : Alexandra Zaïnal
Concept & original design : Baudouin d'Aumeries
Assistance for programming : Marc-Olivier Méhu
Technical & hardware support : Manuel Goepfert

Contact : metmap@orbifly.com




SOURCES & CREDITS :

   NOAA